| time (UTC) | temp C | wind direction | speed KPH | gust KPH | rain 1hr cm | rain 24hr cm | rain mn cm | humidity % | barometer mb |
| 20260906053057 | 27 | 115 | 1.6 | 6.4 | 0.00 | 0.00 | 0.00 | 69 | 1011.7 |
| 20260906051553 | 27 | 94 | 3.2 | 8.0 | 0.00 | 0.00 | 0.00 | 68 | 1011.7 |
| 20260906050105 | 27 | 79 | 3.2 | 9.7 | 0.00 | 0.00 | 0.00 | 66 | 1011.5 |
| 20260906044549 | 27 | 104 | 1.6 | 8.0 | 0.00 | 0.00 | 0.00 | 64 | 1011.4 |
| 20260906043049 | 27 | 73 | 1.6 | 4.8 | 0.00 | 0.00 | 0.00 | 62 | 1011.5 |
| 20260906041547 | 27 | 109 | 3.2 | 8.0 | 0.00 | 0.00 | 0.00 | 61 | 1011.5 |
| 20260906040046 | 28 | 126 | 1.6 | 9.7 | 0.00 | 0.00 | 0.00 | 59 | 1011.2 |
| 20260906034556 | 27 | 104 | 3.2 | 11.3 | 0.00 | 0.00 | 0.00 | 59 | 1011.0 |
| 20260906033045 | 27 | 115 | 0.0 | 6.4 | 0.00 | 0.00 | 0.00 | 58 | 1010.9 |
| 20260906031608 | 27 | 72 | 3.2 | 8.0 | 0.00 | 0.00 | 0.00 | 59 | 1010.5 |
| 20260906030045 | 27 | 66 | 0.0 | 1.6 | 0.00 | 0.00 | 0.00 | 59 | 1010.2 |
| 20260906024553 | 27 | 66 | 0.0 | 0.0 | 0.00 | 0.00 | 0.00 | 58 | 1010.0 |
| 20260906023104 | 28 | 66 | 0.0 | 0.0 | 0.00 | 0.00 | 0.00 | 56 | 1009.6 |
| 20260906021541 | 28 | 66 | 0.0 | 0.0 | 0.00 | 0.00 | 0.00 | 54 | 1009.3 |
| 20260906020049 | 28 | 66 | 0.0 | 0.0 | 0.00 | 0.00 | 0.00 | 53 | 1009.2 |
| 20260906014541 | 29 | 69 | 0.0 | 0.0 | 0.00 | 0.00 | 0.00 | 52 | 1009.1 |
| 20260906013041 | 30 | 75 | 1.6 | 4.8 | 0.00 | 0.00 | 0.00 | 50 | 1009.0 |
| 20260906011540 | 30 | 99 | 3.2 | 4.8 | 0.00 | 0.00 | 0.00 | 50 | 1008.9 |
| 20260906010039 | 31 | 92 | 1.6 | 6.4 | 0.00 | 0.00 | 0.00 | 49 | 1008.8 |
| 20260906004546 | 31 | 76 | 3.2 | 8.0 | 0.00 | 0.00 | 0.00 | 48 | 1008.7 |
| 20260906003047 | 32 | 140 | 3.2 | 14.5 | 0.00 | 0.00 | 0.00 | 47 | 1008.7 |
| 20260906001543 | 32 | 68 | 3.2 | 14.5 | 0.00 | 0.00 | 0.00 | 46 | 1008.6 |
| 20260906000036 | 33 | 71 | 8.0 | 16.1 | 0.00 | 0.00 | 0.00 | 46 | 1008.5 |
| 20260905234536 | 33 | 92 | 3.2 | 9.7 | 0.00 | 0.00 | 0.00 | 45 | 1008.5 |
| 20260905233043 | 33 | 95 | 4.8 | 12.9 | 0.00 | 0.00 | 0.00 | 44 | 1008.6 |
| 20260905231536 | 33 | 179 | 6.4 | 19.3 | 0.00 | 0.00 | 0.00 | 44 | 1008.5 |
| 20260905230031 | 34 | 96 | 6.4 | 16.1 | 0.00 | 0.00 | 0.00 | 45 | 1008.5 |
| 20260905224530 | 34 | 102 | 6.4 | 16.1 | 0.00 | 0.00 | 0.00 | 45 | 1008.3 |
| 20260905223028 | 35 | 123 | 6.4 | 12.9 | 0.00 | 0.00 | 0.00 | 45 | 1008.6 |
| 20260905221526 | 34 | 125 | 6.4 | 14.5 | 0.00 | 0.00 | 0.00 | 46 | 1008.5 |
| 20260905220025 | 33 | 80 | 3.2 | 12.9 | 0.00 | 0.00 | 0.00 | 46 | 1008.5 |
| 20260905214523 | 33 | 151 | 4.8 | 12.9 | 0.00 | 0.00 | 0.00 | 45 | 1008.6 |
| 20260905213022 | 34 | 120 | 6.4 | 12.9 | 0.00 | 0.00 | 0.00 | 44 | 1008.7 |
| 20260905211518 | 35 | 200 | 3.2 | 11.3 | 0.00 | 0.00 | 0.00 | 45 | 1008.9 |
| 20260905210016 | 34 | 111 | 4.8 | 14.5 | 0.00 | 0.00 | 0.00 | 47 | 1009.1 |
| 20260905204515 | 33 | 175 | 3.2 | 14.5 | 0.00 | 0.00 | 0.00 | 48 | 1009.4 |
| 20260905203113 | 35 | 133 | 4.8 | 11.3 | 0.00 | 0.00 | 0.00 | 45 | 1009.6 |
| 20260905201512 | 34 | 107 | 4.8 | 12.9 | 0.00 | 0.00 | 0.00 | 46 | 1009.8 |
| 20260905200007 | 34 | 104 | 4.8 | 12.9 | 0.00 | 0.00 | 0.00 | 48 | 1010.0 |
| 20260905194504 | 35 | 105 | 4.8 | 11.3 | 0.00 | 0.00 | 0.00 | 43 | 1010.3 |
| 20260905193001 | 34 | 289 | 4.8 | 12.9 | 0.00 | 0.00 | 0.00 | 43 | 1010.6 |
| 20260905191558 | 34 | 229 | 1.6 | 9.7 | 0.00 | 0.00 | 0.00 | 46 | 1010.9 |
| 20260905190057 | 33 | 152 | 6.4 | 14.5 | 0.00 | 0.00 | 0.00 | 44 | 1011.1 |
| 20260905184552 | 33 | 89 | 4.8 | 14.5 | 0.00 | 0.00 | 0.00 | 49 | 1011.4 |
| 20260905183049 | 33 | 109 | 9.7 | 14.5 | 0.00 | 0.00 | 0.00 | 50 | 1011.6 |
| 20260905181545 | 32 | 96 | 6.4 | 12.9 | 0.00 | 0.00 | 0.00 | 52 | 1011.8 |
| 20260905180105 | 32 | 237 | 1.6 | 12.9 | 0.00 | 0.00 | 0.00 | 56 | 1012.0 |
| 20260905174544 | 32 | 177 | 4.8 | 16.1 | 0.00 | 0.00 | 0.00 | 57 | 1012.3 |
| 20260905173101 | 31 | 167 | 1.6 | 11.3 | 0.00 | 0.00 | 0.00 | 59 | 1012.4 |
| 20260905171550 | 31 | 198 | 4.8 | 12.9 | 0.00 | 0.00 | 0.00 | 58 | 1012.6 |
| 20260905170038 | 31 | 119 | 4.8 | 16.1 | 0.00 | 0.00 | 0.00 | 62 | 1012.7 |
| 20260905164542 | 31 | 102 | 4.8 | 17.7 | 0.00 | 0.00 | 0.00 | 62 | 1012.7 |
| 20260905163033 | 30 | 71 | 4.8 | 12.9 | 0.00 | 0.00 | 0.00 | 64 | 1012.8 |
| 20260905161531 | 30 | 173 | 6.4 | 16.1 | 0.00 | 0.00 | 0.00 | 65 | 1012.9 |
| 20260905160048 | 30 | 184 | 6.4 | 12.9 | 0.00 | 0.00 | 0.00 | 66 | 1012.8 |
| 20260905154527 | 29 | 91 | 4.8 | 12.9 | 0.00 | 0.00 | 0.00 | 69 | 1012.8 |
| 20260905153028 | 29 | 229 | 3.2 | 9.7 | 0.00 | 0.00 | 0.00 | 71 | 1012.8 |
| 20260905151522 | 28 | 133 | 3.2 | 11.3 | 0.00 | 0.00 | 0.00 | 75 | 1012.8 |
| 20260905150019 | 28 | 154 | 3.2 | 12.9 | 0.00 | 0.00 | 0.00 | 76 | 1012.9 |
| 20260905144527 | 27 | 84 | 4.8 | 9.7 | 0.00 | 0.00 | 0.00 | 79 | 1012.8 |
| 20260905143012 | 26 | 211 | 3.2 | 8.0 | 0.00 | 0.00 | 0.00 | 82 | 1012.9 |
| 20260905141512 | 25 | 218 | 0.0 | 9.7 | 0.00 | 0.00 | 0.00 | 87 | 1012.9 |
| 20260905140002 | 25 | 139 | 0.0 | 4.8 | 0.00 | 0.00 | 0.00 | 89 | 1012.9 |
| 20260905134605 | 22 | 158 | 0.0 | 3.2 | 0.00 | 0.00 | 0.00 | 94 | 1012.7 |
| 20260905133058 | 22 | 21 | 0.0 | 0.0 | 0.00 | 0.00 | 0.00 | 95 | 1012.5 |
| 20260905131557 | 21 | 21 | 0.0 | 0.0 | 0.00 | 0.00 | 0.00 | 94 | 1012.6 |
| 20260905130056 | 21 | 94 | 0.0 | 0.0 | 0.00 | 0.00 | 0.00 | 94 | 1012.5 |
| 20260905124556 | 20 | 94 | 0.0 | 0.0 | 0.00 | 0.00 | 0.00 | 94 | 1012.2 |
| 20260905123051 | 20 | 94 | 0.0 | 0.0 | 0.00 | 0.00 | 0.00 | 94 | 1012.0 |
| 20260905121556 | 20 | 94 | 0.0 | 0.0 | 0.00 | 0.00 | 0.00 | 93 | 1011.9 |
| 20260905120100 | 20 | 94 | 0.0 | 0.0 | 0.00 | 0.00 | 0.00 | 93 | 1011.9 |
| 20260905114601 | 20 | 94 | 0.0 | 0.0 | 0.00 | 0.00 | 0.00 | 93 | 1011.8 |
| 20260905113055 | 21 | 94 | 0.0 | 0.0 | 0.00 | 0.00 | 0.00 | 92 | 1011.7 |
| 20260905111633 | 21 | 94 | 0.0 | 0.0 | 0.00 | 0.00 | 0.00 | 94 | 1011.7 |
| 20260905110044 | 21 | 94 | 0.0 | 0.0 | 0.00 | 0.00 | 0.00 | 92 | 1011.6 |
| 20260905104544 | 21 | 94 | 0.0 | 0.0 | 0.00 | 0.00 | 0.00 | 92 | 1011.5 |
| 20260905103042 | 21 | 94 | 0.0 | 0.0 | 0.00 | 0.00 | 0.00 | 91 | 1011.6 |
| 20260905101543 | 21 | 94 | 0.0 | 0.0 | 0.00 | 0.00 | 0.00 | 91 | 1011.6 |
| 20260905100041 | 21 | 94 | 0.0 | 0.0 | 0.00 | 0.00 | 0.00 | 91 | 1011.5 |
| 20260905094539 | 21 | 94 | 0.0 | 0.0 | 0.00 | 0.00 | 0.00 | 90 | 1011.5 |
| 20260905093042 | 21 | 94 | 0.0 | 0.0 | 0.00 | 0.00 | 0.00 | 90 | 1011.4 |
| 20260905091537 | 21 | 94 | 0.0 | 0.0 | 0.00 | 0.00 | 0.00 | 88 | 1011.4 |
| 20260905090036 | 22 | 94 | 0.0 | 0.0 | 0.00 | 0.00 | 0.00 | 87 | 1011.4 |
| 20260905084534 | 22 | 76 | 0.0 | 0.0 | 0.00 | 0.00 | 0.00 | 91 | 1011.4 |
| 20260905083032 | 22 | 54 | 0.0 | 0.0 | 0.00 | 0.00 | 0.00 | 90 | 1011.4 |
| 20260905081530 | 22 | 54 | 0.0 | 0.0 | 0.00 | 0.00 | 0.00 | 88 | 1011.5 |
| 20260905080033 | 22 | 54 | 0.0 | 0.0 | 0.00 | 0.00 | 0.00 | 87 | 1011.6 |
| 20260905074527 | 22 | 54 | 0.0 | 0.0 | 0.00 | 0.00 | 0.00 | 86 | 1011.7 |
| 20260905073035 | 23 | 54 | 0.0 | 3.2 | 0.00 | 0.00 | 0.00 | 85 | 1011.9 |
| 20260905071525 | 22 | 92 | 1.6 | 4.8 | 0.00 | 0.00 | 0.00 | 85 | 1011.8 |
| 20260905070043 | 22 | 94 | 0.0 | 0.0 | 0.00 | 0.00 | 0.00 | 84 | 1011.9 |
| 20260905064537 | 23 | 94 | 0.0 | 0.0 | 0.00 | 0.00 | 0.00 | 83 | 1011.8 |
| 20260905063021 | 23 | 94 | 0.0 | 0.0 | 0.00 | 0.00 | 0.00 | 83 | 1012.0 |
| 20260905061519 | 23 | 94 | 0.0 | 0.0 | 0.00 | 0.00 | 0.00 | 82 | 1012.0 |
| 20260905060020 | 24 | 94 | 0.0 | 0.0 | 0.00 | 0.00 | 0.00 | 80 | 1011.8 |
| 20260905054523 | 24 | 90 | 1.6 | 8.0 | 0.00 | 0.00 | 0.00 | 79 | 1011.7 |